Year,Month,Day,Hour,Minute,Value (Times are PST for temperature in C)
2009,07,21,00,00,16.80
2009,07,21,00,01,16.80
2009,07,21,00,02,16.80
2009,07,21,00,03,16.80
2009,07,21,00,04,16.80
2009,07,21,00,05,16.80
2009,07,21,00,06,16.80
2009,07,21,00,07,16.70
2009,07,21,00,08,16.70
2009,07,21,00,09,16.70
2009,07,21,00,10,16.70
2009,07,21,00,11,16.70
2009,07,21,00,12,16.70
2009,07,21,00,16,16.70
2009,07,21,00,17,16.70
2009,07,21,00,18,16.70
2009,07,21,00,19,16.70
2009,07,21,00,20,16.70
2009,07,21,00,21,16.70
2009,07,21,00,22,16.70
2009,07,21,00,23,16.60
2009,07,21,00,24,16.60
2009,07,21,00,25,16.60
2009,07,21,00,26,16.60
2009,07,21,00,27,16.60
2009,07,21,00,28,16.60
2009,07,21,00,29,16.60
2009,07,21,00,30,16.50
2009,07,21,00,31,16.40
2009,07,21,00,32,16.40
2009,07,21,00,33,16.40
2009,07,21,00,34,16.40
2009,07,21,00,35,16.40
2009,07,21,00,36,16.40
2009,07,21,00,37,16.40
2009,07,21,00,38,16.40
2009,07,21,00,39,16.40
2009,07,21,00,40,16.30
2009,07,21,00,41,16.30
2009,07,21,00,42,16.30
2009,07,21,00,43,16.30
2009,07,21,00,44,16.30
2009,07,21,00,45,16.20
2009,07,21,00,46,16.20
2009,07,21,00,47,16.20
2009,07,21,00,48,16.20
2009,07,21,00,49,16.20
2009,07,21,00,50,16.20
2009,07,21,00,51,16.20
2009,07,21,00,52,16.20
2009,07,21,00,53,16.10
2009,07,21,00,54,16.10
2009,07,21,00,55,16.10
2009,07,21,00,56,16.10
2009,07,21,00,57,16.10
2009,07,21,00,58,16.10
2009,07,21,00,59,16.10
2009,07,21,01,00,16.10
2009,07,21,01,01,16.10
2009,07,21,01,02,16.10
2009,07,21,01,03,16.10
2009,07,21,01,04,16.10
2009,07,21,01,05,16.10
2009,07,21,01,06,16.00
2009,07,21,01,07,15.90
2009,07,21,01,08,15.90
2009,07,21,01,09,15.90
2009,07,21,01,10,15.90
2009,07,21,01,11,15.90
2009,07,21,01,12,15.90
2009,07,21,01,13,15.90
2009,07,21,01,14,15.90
2009,07,21,01,15,15.90
2009,07,21,01,16,15.80
2009,07,21,01,17,15.80
2009,07,21,01,18,15.80
2009,07,21,01,19,15.80
2009,07,21,01,20,15.80
2009,07,21,01,21,15.80
2009,07,21,01,22,15.80
2009,07,21,01,23,15.80
2009,07,21,01,24,15.80
2009,07,21,01,25,15.80
2009,07,21,01,26,15.80
2009,07,21,01,27,15.80
2009,07,21,01,28,15.80
2009,07,21,01,29,15.80
2009,07,21,01,30,15.80
2009,07,21,01,31,15.80
2009,07,21,01,32,15.80
2009,07,21,01,33,15.80
2009,07,21,01,34,15.80
2009,07,21,01,35,15.80
2009,07,21,01,36,15.80
2009,07,21,01,37,15.80
2009,07,21,01,38,15.80
2009,07,21,01,39,15.80
2009,07,21,01,40,15.80
2009,07,21,01,41,15.80
2009,07,21,01,42,15.80
2009,07,21,01,43,15.80
2009,07,21,01,44,15.80
2009,07,21,01,45,15.80
2009,07,21,01,46,15.80
2009,07,21,01,47,15.80
2009,07,21,01,48,15.80
2009,07,21,01,49,15.80
2009,07,21,01,50,15.80
2009,07,21,01,51,15.80
2009,07,21,01,52,15.80
2009,07,21,01,53,15.80
2009,07,21,01,54,15.80
2009,07,21,01,55,15.80
2009,07,21,01,56,15.80
2009,07,21,01,57,15.80
2009,07,21,01,58,15.80
2009,07,21,01,59,15.80
2009,07,21,02,00,15.80
2009,07,21,02,01,15.80
2009,07,21,02,02,15.80
2009,07,21,02,03,15.80
2009,07,21,02,04,15.80
2009,07,21,02,05,15.80
2009,07,21,02,06,15.80
2009,07,21,02,07,15.80
2009,07,21,02,08,15.80
2009,07,21,02,09,15.80
2009,07,21,02,10,15.90
2009,07,21,02,11,15.90
2009,07,21,02,12,15.90
2009,07,21,02,13,15.90
2009,07,21,02,14,15.90
2009,07,21,02,15,15.90
2009,07,21,02,16,15.90
2009,07,21,02,17,15.90
2009,07,21,02,18,15.90
2009,07,21,02,19,15.90
2009,07,21,02,20,15.80
2009,07,21,02,21,15.80
2009,07,21,02,22,15.80
2009,07,21,02,23,15.80
2009,07,21,02,24,15.80
2009,07,21,02,25,15.80
2009,07,21,02,26,15.80
2009,07,21,02,27,15.80
2009,07,21,02,28,15.80
2009,07,21,02,29,15.80
2009,07,21,02,30,15.80
2009,07,21,02,31,15.80
2009,07,21,02,32,15.80
2009,07,21,02,33,15.80
2009,07,21,02,34,15.80
2009,07,21,02,35,15.80
2009,07,21,02,36,15.80
2009,07,21,02,37,15.80
2009,07,21,02,38,15.80
2009,07,21,02,39,15.80
2009,07,21,02,40,15.80
2009,07,21,02,41,15.80
2009,07,21,02,42,15.80
2009,07,21,02,43,15.80
2009,07,21,02,44,15.80
2009,07,21,02,45,15.80
2009,07,21,02,46,15.80
2009,07,21,02,47,15.80
2009,07,21,02,48,15.80
2009,07,21,02,49,15.80
2009,07,21,02,50,15.80
2009,07,21,02,51,15.80
2009,07,21,02,52,15.80
2009,07,21,02,53,15.80
2009,07,21,02,54,15.80
2009,07,21,02,55,15.80
2009,07,21,02,56,15.80
2009,07,21,02,57,15.80
2009,07,21,02,58,15.80
2009,07,21,02,59,15.80
2009,07,21,03,00,15.80
2009,07,21,03,01,15.80
2009,07,21,03,02,15.80
2009,07,21,03,03,15.80
2009,07,21,03,04,15.80
2009,07,21,03,05,15.80
2009,07,21,03,06,15.80
2009,07,21,03,07,15.80
2009,07,21,03,08,15.80
2009,07,21,03,09,15.80
2009,07,21,03,10,15.80
2009,07,21,03,11,15.80
2009,07,21,03,12,15.80
2009,07,21,03,13,15.80
2009,07,21,03,14,15.80
2009,07,21,03,15,15.80
2009,07,21,03,16,15.80
2009,07,21,03,17,15.80
2009,07,21,03,18,15.80
2009,07,21,03,19,15.80
2009,07,21,03,20,15.80
2009,07,21,03,21,15.80
2009,07,21,03,22,15.80
2009,07,21,03,23,15.80
2009,07,21,03,24,15.80
2009,07,21,03,25,15.80
2009,07,21,03,26,15.80
2009,07,21,03,27,15.80
2009,07,21,03,28,15.80
2009,07,21,03,29,15.80
2009,07,21,03,30,15.80
2009,07,21,03,31,15.80
2009,07,21,03,32,15.80
2009,07,21,03,33,15.80
2009,07,21,03,34,15.80
2009,07,21,03,35,15.80
2009,07,21,03,36,15.80
2009,07,21,03,37,15.80
2009,07,21,03,38,15.80
2009,07,21,03,39,15.80
2009,07,21,03,40,15.80
2009,07,21,03,41,15.80
2009,07,21,03,42,15.80
2009,07,21,03,43,15.80
2009,07,21,03,44,15.80
2009,07,21,03,45,15.80
2009,07,21,03,46,15.80
2009,07,21,03,47,15.80
2009,07,21,03,48,15.80
2009,07,21,03,49,15.80
2009,07,21,03,50,15.80
2009,07,21,03,51,15.80
2009,07,21,03,52,15.80
2009,07,21,03,53,15.80
2009,07,21,03,54,15.80
2009,07,21,03,55,15.80
2009,07,21,03,56,15.80
2009,07,21,03,57,15.80
2009,07,21,03,58,15.80
2009,07,21,03,59,15.80
2009,07,21,04,00,15.80
2009,07,21,04,01,15.80
2009,07,21,04,02,15.80
2009,07,21,04,03,15.80
2009,07,21,04,04,15.80
2009,07,21,04,05,15.80
2009,07,21,04,06,15.80
2009,07,21,04,07,15.70
2009,07,21,04,08,15.70
2009,07,21,04,09,15.70
2009,07,21,04,10,15.70
2009,07,21,04,11,15.70
2009,07,21,04,12,15.70
2009,07,21,04,13,15.70
2009,07,21,04,14,15.70
2009,07,21,04,15,15.70
2009,07,21,04,16,15.70
2009,07,21,04,17,15.70
2009,07,21,04,18,15.60
2009,07,21,04,19,15.60
2009,07,21,04,20,15.60
2009,07,21,04,21,15.60
2009,07,21,04,22,15.60
2009,07,21,04,23,15.60
2009,07,21,04,24,15.60
2009,07,21,04,25,15.60
2009,07,21,04,26,15.50
2009,07,21,04,27,15.50
2009,07,21,04,28,15.50
2009,07,21,04,29,15.50
2009,07,21,04,30,15.50
2009,07,21,04,31,15.50
2009,07,21,04,32,15.50
2009,07,21,04,33,15.50
2009,07,21,04,34,15.50
2009,07,21,04,35,15.40
2009,07,21,04,36,15.40
2009,07,21,04,37,15.40
2009,07,21,04,38,15.40
2009,07,21,04,39,15.40
2009,07,21,04,40,15.40
2009,07,21,04,41,15.40
2009,07,21,04,42,15.40
2009,07,21,04,43,15.30
2009,07,21,04,44,15.30
2009,07,21,04,45,15.30
2009,07,21,04,46,15.30
2009,07,21,04,47,15.30
2009,07,21,04,48,15.30
2009,07,21,04,49,15.30
2009,07,21,04,50,15.30
2009,07,21,04,51,15.30
2009,07,21,04,52,15.30
2009,07,21,04,53,15.30
2009,07,21,04,54,15.30
2009,07,21,04,55,15.30
2009,07,21,04,56,15.30
2009,07,21,04,57,15.30
2009,07,21,04,58,15.30
2009,07,21,04,59,15.30
2009,07,21,05,00,15.30
2009,07,21,05,01,15.30
2009,07,21,05,02,15.30
2009,07,21,05,03,15.20
2009,07,21,05,04,15.20
2009,07,21,05,05,15.20
2009,07,21,05,06,15.20
2009,07,21,05,07,15.20
2009,07,21,05,08,15.20
2009,07,21,05,09,15.20
2009,07,21,05,10,15.20
2009,07,21,05,11,15.20
2009,07,21,05,12,15.20
2009,07,21,05,13,15.20
2009,07,21,05,14,15.20
2009,07,21,05,15,15.20
2009,07,21,05,16,15.20
2009,07,21,05,17,15.20
2009,07,21,05,18,15.20
2009,07,21,05,19,15.20
2009,07,21,05,20,15.20
2009,07,21,05,21,15.20
2009,07,21,05,22,15.20
2009,07,21,05,23,15.20
2009,07,21,05,24,15.20
2009,07,21,05,25,15.20
2009,07,21,05,26,15.20
2009,07,21,05,27,15.20
2009,07,21,05,28,15.20
2009,07,21,05,29,15.20
2009,07,21,05,30,15.20
2009,07,21,05,31,15.20
2009,07,21,05,32,15.20
2009,07,21,05,33,15.20
2009,07,21,05,34,15.20
2009,07,21,05,35,15.20
2009,07,21,05,36,15.20
2009,07,21,05,37,15.20
2009,07,21,05,38,15.20
2009,07,21,05,39,15.20
2009,07,21,05,40,15.20
2009,07,21,05,41,15.20
2009,07,21,05,42,15.20
2009,07,21,05,43,15.20
2009,07,21,05,44,15.20
2009,07,21,05,45,15.20
2009,07,21,05,46,15.20
2009,07,21,05,47,15.10
2009,07,21,05,48,15.10
2009,07,21,05,49,15.10
2009,07,21,05,50,15.10
2009,07,21,05,51,15.10
2009,07,21,05,52,15.10
2009,07,21,05,53,15.10
2009,07,21,05,54,15.10
2009,07,21,05,55,15.10
2009,07,21,05,56,15.10
2009,07,21,05,57,15.10
2009,07,21,05,58,15.10
2009,07,21,05,59,15.10
2009,07,21,06,00,15.10
2009,07,21,06,01,15.10
2009,07,21,06,02,15.10
2009,07,21,06,03,15.10
2009,07,21,06,04,15.10
2009,07,21,06,05,15.10
2009,07,21,06,06,15.10
2009,07,21,06,07,15.10
2009,07,21,06,08,15.10
2009,07,21,06,09,15.10
2009,07,21,06,10,15.10
2009,07,21,06,11,15.10
2009,07,21,06,12,15.10
2009,07,21,06,13,15.10
2009,07,21,06,14,15.10
2009,07,21,06,15,15.10
2009,07,21,06,16,15.10
2009,07,21,06,17,15.10
2009,07,21,06,18,15.10
2009,07,21,06,19,15.10
2009,07,21,06,20,15.10
2009,07,21,06,21,15.10
2009,07,21,06,22,15.10
2009,07,21,06,23,15.10
2009,07,21,06,24,15.20
2009,07,21,06,25,15.20
2009,07,21,06,26,15.20
2009,07,21,06,27,15.20
2009,07,21,06,28,15.20
2009,07,21,06,29,15.20
2009,07,21,06,30,15.20
2009,07,21,06,31,15.20
2009,07,21,06,32,15.20
2009,07,21,06,33,15.20
2009,07,21,06,34,15.30
2009,07,21,06,35,15.30
2009,07,21,06,36,15.30
2009,07,21,06,37,15.30
2009,07,21,06,38,15.30
2009,07,21,06,39,15.30
2009,07,21,06,40,15.30
2009,07,21,06,41,15.30
2009,07,21,06,42,15.30
2009,07,21,06,43,15.30
2009,07,21,06,44,15.30
2009,07,21,06,45,15.30
2009,07,21,06,46,15.30
2009,07,21,06,47,15.30
2009,07,21,06,48,15.30
2009,07,21,06,49,15.40
2009,07,21,06,50,15.40
2009,07,21,06,51,15.40
2009,07,21,06,52,15.40
2009,07,21,06,53,15.40
2009,07,21,06,54,15.40
2009,07,21,06,55,15.40
2009,07,21,06,56,15.40
2009,07,21,06,57,15.50
2009,07,21,06,58,15.50
2009,07,21,06,59,15.50
2009,07,21,07,00,15.50
2009,07,21,07,01,15.50
2009,07,21,07,02,15.60
2009,07,21,07,03,15.60
2009,07,21,07,04,15.60
2009,07,21,07,05,15.60
2009,07,21,07,06,15.70
2009,07,21,07,07,15.70
2009,07,21,07,08,15.70
2009,07,21,07,09,15.70
2009,07,21,07,10,15.80
2009,07,21,07,11,15.80
2009,07,21,07,12,15.80
2009,07,21,07,13,15.80
2009,07,21,07,14,15.80
2009,07,21,07,15,15.80
2009,07,21,07,16,15.80
2009,07,21,07,17,15.80
2009,07,21,07,18,15.90
2009,07,21,07,19,15.90
2009,07,21,07,20,15.90
2009,07,21,07,21,16.00
2009,07,21,07,22,16.10
2009,07,21,07,23,16.10
2009,07,21,07,24,16.10
2009,07,21,07,25,16.20
2009,07,21,07,26,16.20
2009,07,21,07,27,16.20
2009,07,21,07,28,16.30
2009,07,21,07,29,16.30
2009,07,21,07,30,16.30
2009,07,21,07,31,16.30
2009,07,21,07,32,16.40
2009,07,21,07,33,16.40
2009,07,21,07,34,16.40
2009,07,21,07,35,16.40
2009,07,21,07,36,16.40
2009,07,21,07,37,16.50
2009,07,21,07,38,16.60
2009,07,21,07,39,16.60
2009,07,21,07,40,16.70
2009,07,21,07,41,16.70
2009,07,21,07,42,16.70
2009,07,21,07,43,16.80
2009,07,21,07,44,16.90
2009,07,21,07,45,16.90
2009,07,21,07,46,17.00
2009,07,21,07,47,17.00
2009,07,21,07,48,17.00
2009,07,21,07,49,17.10
2009,07,21,07,50,17.10
2009,07,21,07,51,17.10
2009,07,21,07,52,17.20
2009,07,21,07,53,17.20
2009,07,21,07,54,17.30
2009,07,21,07,55,17.30
2009,07,21,07,56,17.30
2009,07,21,07,57,17.40
2009,07,21,07,58,17.50
2009,07,21,07,59,17.50
2009,07,21,08,00,17.60
2009,07,21,08,01,17.60
2009,07,21,08,02,17.70
2009,07,21,08,03,17.80
2009,07,21,08,04,17.80
2009,07,21,08,05,17.90
2009,07,21,08,06,18.00
2009,07,21,08,07,18.10
2009,07,21,08,08,18.20
2009,07,21,08,09,18.20
2009,07,21,08,10,18.20
2009,07,21,08,11,18.30
2009,07,21,08,12,18.40
2009,07,21,08,13,18.40
2009,07,21,08,14,18.50
2009,07,21,08,15,18.60
2009,07,21,08,16,18.60
2009,07,21,08,17,18.70
2009,07,21,08,18,18.80
2009,07,21,08,19,18.90
2009,07,21,08,20,18.90
2009,07,21,08,21,19.00
2009,07,21,08,22,19.10
2009,07,21,08,23,19.10
2009,07,21,08,24,19.20
2009,07,21,08,25,19.30
2009,07,21,08,26,19.30
2009,07,21,08,27,19.40
2009,07,21,08,28,19.50
2009,07,21,08,29,19.60
2009,07,21,08,30,19.60
2009,07,21,08,31,19.80
2009,07,21,08,32,19.90
2009,07,21,08,33,19.90
2009,07,21,08,34,20.10
2009,07,21,08,35,20.20
2009,07,21,08,36,20.20
2009,07,21,08,37,20.30
2009,07,21,08,38,20.40
2009,07,21,08,39,20.50
2009,07,21,08,40,20.60
2009,07,21,08,41,20.70
2009,07,21,08,42,20.80
2009,07,21,08,43,20.90
2009,07,21,08,44,21.00
2009,07,21,08,45,21.00
2009,07,21,08,46,21.10
2009,07,21,08,47,21.10
2009,07,21,08,48,21.10
2009,07,21,08,49,21.20
2009,07,21,08,50,21.20
2009,07,21,08,51,21.30
2009,07,21,08,52,21.30
2009,07,21,08,53,21.30
2009,07,21,08,54,21.30
2009,07,21,08,55,21.30
2009,07,21,08,56,21.40
2009,07,21,08,57,21.40
2009,07,21,08,58,21.50
2009,07,21,08,59,21.60
2009,07,21,09,00,21.60
2009,07,21,09,01,21.60
2009,07,21,09,02,21.60
2009,07,21,09,03,21.60
2009,07,21,09,04,21.70
2009,07,21,09,05,21.80
2009,07,21,09,06,21.90
2009,07,21,09,07,22.00
2009,07,21,09,08,22.10
2009,07,21,09,09,22.10
2009,07,21,09,10,22.20
2009,07,21,09,11,22.20
2009,07,21,09,12,22.20
2009,07,21,09,13,22.20
2009,07,21,09,14,22.10
2009,07,21,09,15,22.10
2009,07,21,09,16,22.00
2009,07,21,09,17,22.00
2009,07,21,09,18,22.00
2009,07,21,09,19,22.00
2009,07,21,09,20,22.00
2009,07,21,09,21,22.00
2009,07,21,09,22,22.00
2009,07,21,09,23,22.00
2009,07,21,09,24,22.00
2009,07,21,09,25,22.00
2009,07,21,09,26,22.10
2009,07,21,09,27,22.20
2009,07,21,09,28,22.30
2009,07,21,09,29,22.40
2009,07,21,09,30,22.50
2009,07,21,09,31,22.50
2009,07,21,09,32,22.60
2009,07,21,09,33,22.70
2009,07,21,09,34,22.70
2009,07,21,09,35,22.80
2009,07,21,09,36,22.80
2009,07,21,09,37,22.80
2009,07,21,09,38,22.80
2009,07,21,09,39,22.70
2009,07,21,09,40,22.60
2009,07,21,09,41,22.60
2009,07,21,09,42,22.60
2009,07,21,09,43,22.50
2009,07,21,09,44,22.40
2009,07,21,09,45,22.40
2009,07,21,09,46,22.40
2009,07,21,09,47,22.40
2009,07,21,09,48,22.40
2009,07,21,09,49,22.40
2009,07,21,09,50,22.30
2009,07,21,09,51,22.20
2009,07,21,09,52,22.00
2009,07,21,09,53,21.90
2009,07,21,09,54,21.80
2009,07,21,09,55,21.60
2009,07,21,09,56,21.60
2009,07,21,09,57,21.60
2009,07,21,09,58,21.60
2009,07,21,09,59,21.60
2009,07,21,10,00,21.50
2009,07,21,10,01,21.30
2009,07,21,10,02,21.20
2009,07,21,10,03,21.10
2009,07,21,10,04,21.10
2009,07,21,10,05,21.00
2009,07,21,10,06,21.00
2009,07,21,10,07,21.00
2009,07,21,10,08,21.00
2009,07,21,10,09,21.00
2009,07,21,10,10,21.00
2009,07,21,10,11,21.10
2009,07,21,10,12,21.10
2009,07,21,10,13,21.10
2009,07,21,10,14,21.10
2009,07,21,10,15,21.10
2009,07,21,10,16,21.10
2009,07,21,10,17,21.10
2009,07,21,10,18,21.00
2009,07,21,10,19,21.00
2009,07,21,10,20,20.90
2009,07,21,10,21,20.90
2009,07,21,10,22,20.80
2009,07,21,10,23,20.80
2009,07,21,10,24,20.80
2009,07,21,10,25,20.90
2009,07,21,10,26,20.90
2009,07,21,10,27,20.90
2009,07,21,10,28,20.80
2009,07,21,10,29,20.80
2009,07,21,10,30,20.80
2009,07,21,10,31,20.80
2009,07,21,10,32,20.80
2009,07,21,10,33,20.80
2009,07,21,10,34,20.80
2009,07,21,10,35,20.80
2009,07,21,10,36,20.90
2009,07,21,10,37,20.90
2009,07,21,10,38,20.90
2009,07,21,10,39,20.90
2009,07,21,10,40,20.90
2009,07,21,10,41,21.00
2009,07,21,10,42,21.00
2009,07,21,10,43,21.10
2009,07,21,10,44,21.20
2009,07,21,10,45,21.30
2009,07,21,10,46,21.30
2009,07,21,10,47,21.30
2009,07,21,10,48,21.30
2009,07,21,10,49,21.30
2009,07,21,10,50,21.20
2009,07,21,10,51,21.20
2009,07,21,10,52,21.20
2009,07,21,10,53,21.30
2009,07,21,10,54,21.30
2009,07,21,10,55,21.30
2009,07,21,10,56,21.30
2009,07,21,10,57,21.30
2009,07,21,10,58,21.30
2009,07,21,10,59,21.40
2009,07,21,11,00,21.40
2009,07,21,11,01,21.40
2009,07,21,11,02,21.40
2009,07,21,11,03,21.60
2009,07,21,11,04,21.60
2009,07,21,11,05,21.60
2009,07,21,11,06,21.60
2009,07,21,11,07,21.50
2009,07,21,11,08,21.40
2009,07,21,11,09,21.40
2009,07,21,11,10,21.30
2009,07,21,11,11,21.30
2009,07,21,11,12,21.30
2009,07,21,11,13,21.30
2009,07,21,11,14,21.30
2009,07,21,11,15,21.40
2009,07,21,11,16,21.50
2009,07,21,11,17,21.60
2009,07,21,11,18,21.70
2009,07,21,11,19,21.80
2009,07,21,11,20,21.80
2009,07,21,11,21,21.80
2009,07,21,11,22,21.80
2009,07,21,11,23,21.90
2009,07,21,11,24,22.00
2009,07,21,11,25,22.00
2009,07,21,11,26,22.00
2009,07,21,11,27,22.00
2009,07,21,11,28,22.00
2009,07,21,11,29,22.00
2009,07,21,11,30,22.00
2009,07,21,11,31,22.00
2009,07,21,11,32,22.10
2009,07,21,11,33,22.10
2009,07,21,11,34,22.00
2009,07,21,11,35,22.00
2009,07,21,11,36,21.90
2009,07,21,11,37,21.90
2009,07,21,11,38,21.90
2009,07,21,11,39,21.90
2009,07,21,11,40,21.90
2009,07,21,11,41,22.00
2009,07,21,11,42,22.00
2009,07,21,11,43,22.00
2009,07,21,11,44,22.00
2009,07,21,11,45,22.10
2009,07,21,11,46,22.10
2009,07,21,11,47,22.20
2009,07,21,11,48,22.10
2009,07,21,11,49,22.10
2009,07,21,11,50,22.10
2009,07,21,11,51,22.10
2009,07,21,11,52,22.00
2009,07,21,11,53,22.00
2009,07,21,11,54,22.00
2009,07,21,11,55,22.00
2009,07,21,11,56,22.00
2009,07,21,11,57,21.90
2009,07,21,11,58,21.90
2009,07,21,11,59,21.80
2009,07,21,12,00,21.70
2009,07,21,12,01,21.60
2009,07,21,12,02,21.60
2009,07,21,12,03,21.60
2009,07,21,12,04,21.60
2009,07,21,12,05,21.70
2009,07,21,12,06,21.70
2009,07,21,12,07,21.80
2009,07,21,12,08,22.00
2009,07,21,12,09,22.00
2009,07,21,12,10,22.10
2009,07,21,12,11,22.20
2009,07,21,12,12,22.20
2009,07,21,12,13,22.30
2009,07,21,12,14,22.30
2009,07,21,12,15,22.40
2009,07,21,12,16,22.40
2009,07,21,12,17,22.50
2009,07,21,12,18,22.50
2009,07,21,12,19,22.50
2009,07,21,12,20,22.50
2009,07,21,12,21,22.50
2009,07,21,12,22,22.50
2009,07,21,12,23,22.50
2009,07,21,12,24,22.40
2009,07,21,12,25,22.50
2009,07,21,12,26,22.50
2009,07,21,12,27,22.40
2009,07,21,12,28,22.40
2009,07,21,12,29,22.40
2009,07,21,12,30,22.40
2009,07,21,12,31,22.40
2009,07,21,12,32,22.40
2009,07,21,12,33,22.50
2009,07,21,12,34,22.60
2009,07,21,12,35,22.70
2009,07,21,12,36,22.90
2009,07,21,12,37,23.10
2009,07,21,12,38,23.20
2009,07,21,12,39,23.30
2009,07,21,12,40,23.30
2009,07,21,12,41,23.30
2009,07,21,12,42,23.40
2009,07,21,12,43,23.40
2009,07,21,12,44,23.40
2009,07,21,12,45,23.40
2009,07,21,12,46,23.30
2009,07,21,12,47,23.50
2009,07,21,12,48,23.60
2009,07,21,12,49,23.70
2009,07,21,12,50,24.00
2009,07,21,12,51,24.20
2009,07,21,12,52,24.40
2009,07,21,12,53,24.50
2009,07,21,12,54,24.50
2009,07,21,12,55,24.50
2009,07,21,12,56,24.50
2009,07,21,12,57,24.50
2009,07,21,12,58,24.40
2009,07,21,12,59,24.30
2009,07,21,13,00,24.30
2009,07,21,13,01,24.30
2009,07,21,13,02,24.20
2009,07,21,13,03,24.10
2009,07,21,13,04,24.10
2009,07,21,13,05,23.90
2009,07,21,13,06,23.80
2009,07,21,13,07,23.80
2009,07,21,13,08,23.70
2009,07,21,13,09,23.70
2009,07,21,13,10,23.70
2009,07,21,13,11,23.70
2009,07,21,13,12,23.70
2009,07,21,13,13,23.70
2009,07,21,13,14,23.70
2009,07,21,13,15,23.70
2009,07,21,13,16,23.70
2009,07,21,13,17,23.70
2009,07,21,13,18,23.70
2009,07,21,13,19,23.70
2009,07,21,13,20,23.70
2009,07,21,13,21,23.70
2009,07,21,13,22,23.60
2009,07,21,13,23,23.40
2009,07,21,13,24,23.30
2009,07,21,13,25,23.30
2009,07,21,13,26,23.30
2009,07,21,13,27,23.20
2009,07,21,13,28,23.30
2009,07,21,13,29,23.30
2009,07,21,13,30,23.40
2009,07,21,13,31,23.40
2009,07,21,13,32,23.40
2009,07,21,13,33,23.60
2009,07,21,13,34,23.60
2009,07,21,13,35,23.70
2009,07,21,13,36,23.70
2009,07,21,13,37,23.70
2009,07,21,13,38,23.70
2009,07,21,13,39,23.70
2009,07,21,13,40,23.70
2009,07,21,13,41,23.80
2009,07,21,13,42,23.90
2009,07,21,13,43,23.90
2009,07,21,13,44,23.90
2009,07,21,13,48,23.70
2009,07,21,13,49,23.70
2009,07,21,13,50,23.70
2009,07,21,13,51,23.80
2009,07,21,13,52,23.80
2009,07,21,13,53,24.00
2009,07,21,13,54,24.10
2009,07,21,13,55,24.10
2009,07,21,13,56,24.10
2009,07,21,13,57,24.10
2009,07,21,13,58,24.00
2009,07,21,13,59,23.90
2009,07,21,14,00,23.90
2009,07,21,14,01,23.80
2009,07,21,14,02,23.80
2009,07,21,14,03,23.80
2009,07,21,14,04,23.90
2009,07,21,14,05,24.00
2009,07,21,14,06,24.10
2009,07,21,14,07,24.30
2009,07,21,14,08,24.40
2009,07,21,14,09,24.50
2009,07,21,14,10,24.70
2009,07,21,14,11,24.70
2009,07,21,14,12,24.80
2009,07,21,14,13,24.80
2009,07,21,14,14,24.80
2009,07,21,14,15,24.80
2009,07,21,14,16,24.80
2009,07,21,14,17,24.70
2009,07,21,14,18,24.80
2009,07,21,14,19,24.80
2009,07,21,14,20,24.90
2009,07,21,14,21,25.00
2009,07,21,14,22,25.10
2009,07,21,14,23,25.30
2009,07,21,14,24,25.40
2009,07,21,14,25,25.50
2009,07,21,14,26,25.50
2009,07,21,14,27,25.60
2009,07,21,14,28,25.60
2009,07,21,14,29,25.60
2009,07,21,14,30,25.60
2009,07,21,14,31,25.60
2009,07,21,14,32,25.60
2009,07,21,14,33,25.60
2009,07,21,14,34,25.60
2009,07,21,14,35,25.60
2009,07,21,14,36,25.50
2009,07,21,14,37,25.40
2009,07,21,14,38,25.40
2009,07,21,14,39,25.40
2009,07,21,14,40,25.50
2009,07,21,14,41,25.50
2009,07,21,14,42,25.50
2009,07,21,14,43,25.60
2009,07,21,14,44,25.50
2009,07,21,14,45,25.50
2009,07,21,14,46,25.50
2009,07,21,14,47,25.50
2009,07,21,14,48,25.50
2009,07,21,14,49,25.50
2009,07,21,14,50,25.50
2009,07,21,14,51,25.50
2009,07,21,14,52,25.50
2009,07,21,14,53,25.60
2009,07,21,14,54,25.60
2009,07,21,14,55,25.60
2009,07,21,14,56,25.70
2009,07,21,14,57,25.70
2009,07,21,14,58,25.70
2009,07,21,14,59,25.70
2009,07,21,15,00,25.70
2009,07,21,15,01,25.70
2009,07,21,15,02,25.70
2009,07,21,15,03,25.80
2009,07,21,15,04,25.90
2009,07,21,15,05,26.00
2009,07,21,15,06,26.10
2009,07,21,15,07,26.10
2009,07,21,15,08,26.20
2009,07,21,15,09,26.30
2009,07,21,15,10,26.40
2009,07,21,15,11,26.40
2009,07,21,15,12,26.30
2009,07,21,15,13,26.30
2009,07,21,15,14,26.30
2009,07,21,15,15,26.40
2009,07,21,15,16,26.40
2009,07,21,15,17,26.40
2009,07,21,15,18,26.40
2009,07,21,15,19,26.40
2009,07,21,15,20,26.40
2009,07,21,15,21,26.40
2009,07,21,15,22,26.40
2009,07,21,15,23,26.30
2009,07,21,15,24,26.30
2009,07,21,15,25,26.30
2009,07,21,15,26,26.20
2009,07,21,15,27,26.10
2009,07,21,15,28,26.10
2009,07,21,15,29,26.30
2009,07,21,15,30,26.30
2009,07,21,15,31,26.40
2009,07,21,15,32,26.40
2009,07,21,15,33,26.40
2009,07,21,15,34,26.40
2009,07,21,15,35,26.40
2009,07,21,15,36,26.40
2009,07,21,15,37,26.30
2009,07,21,15,38,26.30
2009,07,21,15,39,26.30
2009,07,21,15,40,26.30
2009,07,21,15,41,26.30
2009,07,21,15,42,26.30
2009,07,21,15,43,26.30
2009,07,21,15,44,26.30
2009,07,21,15,45,26.20
2009,07,21,15,46,26.10
2009,07,21,15,47,26.10
2009,07,21,15,48,26.10
2009,07,21,15,49,26.20
2009,07,21,15,50,26.20
2009,07,21,15,51,26.20
2009,07,21,15,52,26.20
2009,07,21,15,53,26.30
2009,07,21,15,54,26.30
2009,07,21,15,55,26.30
2009,07,21,15,56,26.30
2009,07,21,15,57,26.30
2009,07,21,15,58,26.40
2009,07,21,15,59,26.40
2009,07,21,16,00,26.50
2009,07,21,16,01,26.60
2009,07,21,16,02,26.70
2009,07,21,16,03,26.70
2009,07,21,16,04,26.80
2009,07,21,16,05,26.80
2009,07,21,16,06,26.80
2009,07,21,16,07,26.80
2009,07,21,16,08,26.80
2009,07,21,16,09,26.90
2009,07,21,16,10,26.90
2009,07,21,16,11,26.80
2009,07,21,16,12,26.80
2009,07,21,16,13,26.80
2009,07,21,16,14,26.70
2009,07,21,16,15,26.60
2009,07,21,16,16,26.70
2009,07,21,16,17,26.70
2009,07,21,16,18,26.70
2009,07,21,16,19,26.70
2009,07,21,16,20,26.60
2009,07,21,16,21,26.60
2009,07,21,16,22,26.50
2009,07,21,16,23,26.40
2009,07,21,16,24,26.30
2009,07,21,16,25,26.20
2009,07,21,16,26,26.20
2009,07,21,16,27,26.20
2009,07,21,16,28,26.10
2009,07,21,16,29,26.10
2009,07,21,16,30,26.00
2009,07,21,16,31,26.00
2009,07,21,16,32,26.00
2009,07,21,16,33,26.00
2009,07,21,16,34,26.00
2009,07,21,16,35,26.00
2009,07,21,16,36,26.10
2009,07,21,16,37,26.10
2009,07,21,16,38,26.10
2009,07,21,16,39,26.10
2009,07,21,16,40,26.10
2009,07,21,16,41,26.00
2009,07,21,16,42,26.00
2009,07,21,16,43,25.90
2009,07,21,16,44,25.90
2009,07,21,16,45,25.90
2009,07,21,16,46,25.80
2009,07,21,16,47,25.90
2009,07,21,16,48,25.90
2009,07,21,16,49,25.90
2009,07,21,16,50,26.00
2009,07,21,16,51,26.10
2009,07,21,16,52,26.10
2009,07,21,16,53,26.20
2009,07,21,16,54,26.10
2009,07,21,16,55,26.10
2009,07,21,16,56,26.10
2009,07,21,16,57,26.00
2009,07,21,16,58,26.00
2009,07,21,16,59,26.00
2009,07,21,17,00,26.00
2009,07,21,17,01,25.90
2009,07,21,17,02,25.90
2009,07,21,17,03,25.80
2009,07,21,17,04,25.80
2009,07,21,17,05,25.70
2009,07,21,17,06,25.70
2009,07,21,17,07,25.60
2009,07,21,17,08,25.50
2009,07,21,17,09,25.50
2009,07,21,17,10,25.40
2009,07,21,17,11,25.40
2009,07,21,17,12,25.30
2009,07,21,17,13,25.30
2009,07,21,17,14,25.20
2009,07,21,17,15,25.20
2009,07,21,17,16,25.30
2009,07,21,17,17,25.30
2009,07,21,17,18,25.30
2009,07,21,17,19,25.20
2009,07,21,17,20,25.10
2009,07,21,17,21,25.10
2009,07,21,17,22,25.10
2009,07,21,17,23,25.10
2009,07,21,17,24,25.10
2009,07,21,17,25,25.10